| time (UTC) | temp F | wind direction | speed knots | gust knots | rain 1hr in | rain 24hr in | rain mn in | humidity % | barometer mb |
| 20260505111522 | 52 | 333 | 0.0 | 0.0 | 0.00 | 0.00 | 0.00 | 92 | 1014.8 |
| 20260505100031 | 53 | 333 | 0.9 | 3.5 | 0.00 | 0.00 | 0.00 | 90 | 1014.4 |
| 20260505094528 | 52 | 333 | 0.9 | 4.3 | 0.00 | 0.00 | 0.00 | 91 | 1014.3 |
| 20260505093008 | 53 | 333 | 0.9 | 3.5 | 0.00 | 0.00 | 0.00 | 91 | 1014.2 |
| 20260505091508 | 53 | 333 | 0.0 | 0.0 | 0.00 | 0.00 | 0.00 | 90 | 1014.1 |
| 20260505090008 | 53 | 333 | 0.0 | 0.0 | 0.00 | 0.00 | 0.00 | 90 | 1014.1 |
| 20260505083013 | 53 | 333 | 0.0 | 1.7 | 0.00 | 0.00 | 0.00 | 90 | 1014.0 |
| 20260505081509 | 53 | 333 | 0.0 | 1.7 | 0.00 | 0.00 | 0.00 | 90 | 1014.0 |
| 20260505080007 | 53 | 333 | 0.0 | 2.6 | 0.00 | 0.00 | 0.00 | 90 | 1013.9 |
| 20260505073010 | 53 | 333 | 1.7 | 3.5 | 0.00 | 0.00 | 0.00 | 90 | 1013.5 |
| 20260505071516 | 53 | 333 | 0.0 | 3.5 | 0.00 | 0.00 | 0.00 | 90 | 1013.5 |
| 20260505070006 | 53 | 333 | 0.9 | 4.3 | 0.00 | 0.00 | 0.00 | 90 | 1013.5 |
| 20260505064514 | 53 | 333 | 0.0 | 4.3 | 0.00 | 0.00 | 0.00 | 90 | 1013.4 |
| 20260505063013 | 53 | 333 | 1.7 | 4.3 | 0.00 | 0.00 | 0.00 | 89 | 1013.3 |
| 20260505061511 | 53 | 335 | 0.9 | 4.3 | 0.00 | 0.00 | 0.00 | 88 | 1013.2 |
| 20260505060006 | 53 | 339 | 2.6 | 7.8 | 0.00 | 0.00 | 0.00 | 87 | 1013.1 |
| 20260505054516 | 54 | 304 | 4.3 | 8.7 | 0.00 | 0.00 | 0.00 | 87 | 1013.0 |
| 20260505053023 | 54 | 305 | 5.2 | 9.6 | 0.00 | 0.00 | 0.00 | 86 | 1013.0 |
| 20260505041516 | 59 | 319 | 7.0 | 11.3 | 0.00 | 0.00 | 0.00 | 79 | 1012.1 |
| 20260505040028 | 60 | 321 | 7.0 | 11.3 | 0.00 | 0.00 | 0.00 | 77 | 1011.8 |
| 20260505034511 | 62 | 296 | 4.3 | 7.8 | 0.00 | 0.00 | 0.00 | 74 | 1011.6 |
| 20260505033012 | 63 | 310 | 0.9 | 9.6 | 0.00 | 0.00 | 0.00 | 72 | 1011.2 |
| 20260505024520 | 68 | 328 | 3.5 | 8.7 | 0.00 | 0.00 | 0.00 | 62 | 1010.6 |
| 20260505023018 | 69 | 295 | 4.3 | 12.2 | 0.00 | 0.00 | 0.00 | 60 | 1010.5 |
| 20260505021510 | 70 | 323 | 7.0 | 13.0 | 0.00 | 0.00 | 0.00 | 57 | 1010.4 |
| 20260505020024 | 70 | 321 | 9.6 | 15.6 | 0.00 | 0.00 | 0.00 | 54 | 1010.3 |
| 20260505014522 | 71 | 284 | 7.8 | 14.8 | 0.00 | 0.00 | 0.00 | 52 | 1010.2 |
| 20260505011515 | 73 | 322 | 8.7 | 16.5 | 0.00 | 0.00 | 0.00 | 49 | 1010.2 |
| 20260505003013 | 76 | 316 | 7.0 | 14.8 | 0.00 | 0.00 | 0.00 | 44 | 1010.2 |
| 20260505001512 | 76 | 304 | 5.2 | 16.5 | 0.00 | 0.00 | 0.00 | 46 | 1010.2 |
| 20260505000013 | 76 | 301 | 9.6 | 14.8 | 0.00 | 0.00 | 0.00 | 45 | 1010.1 |
| 20260504233014 | 76 | 333 | 7.8 | 15.6 | 0.00 | 0.00 | 0.00 | 43 | 1009.9 |
| 20260504231513 | 77 | 304 | 8.7 | 16.5 | 0.00 | 0.00 | 0.00 | 47 | 1010.1 |
| 20260504230012 | 77 | 247 | 1.7 | 8.7 | 0.00 | 0.00 | 0.00 | 61 | 1010.2 |
| 20260504224513 | 77 | 234 | 2.6 | 7.0 | 0.00 | 0.00 | 0.00 | 60 | 1010.3 |
| 20260504221521 | 75 | 215 | 3.5 | 7.8 | 0.00 | 0.00 | 0.00 | 63 | 1010.5 |
| 20260504220016 | 75 | 214 | 3.5 | 7.8 | 0.00 | 0.00 | 0.00 | 58 | 1010.7 |
| 20260504214514 | 74 | 241 | 3.5 | 7.8 | 0.00 | 0.00 | 0.00 | 62 | 1010.9 |
| 20260504211512 | 73 | 257 | 2.6 | 7.8 | 0.00 | 0.00 | 0.00 | 63 | 1011.1 |
| 20260504210016 | 72 | 155 | 0.9 | 8.7 | 0.00 | 0.00 | 0.00 | 63 | 1011.2 |
| 20260504204514 | 72 | 254 | 0.9 | 7.8 | 0.00 | 0.00 | 0.00 | 61 | 1011.4 |
| 20260504203013 | 71 | 163 | 0.9 | 5.2 | 0.00 | 0.00 | 0.00 | 64 | 1011.6 |
| 20260504201514 | 70 | 165 | 2.6 | 7.8 | 0.00 | 0.00 | 0.00 | 66 | 1011.7 |
| 20260504200033 | 69 | 186 | 2.6 | 8.7 | 0.00 | 0.00 | 0.00 | 61 | 1011.9 |
| 20260504194512 | 68 | 198 | 0.9 | 8.7 | 0.00 | 0.00 | 0.00 | 68 | 1012.1 |
| 20260504190016 | 66 | 232 | 2.6 | 8.7 | 0.00 | 0.00 | 0.00 | 75 | 1012.4 |
| 20260504184515 | 65 | 205 | 2.6 | 7.0 | 0.00 | 0.00 | 0.00 | 74 | 1012.6 |
| 20260504183029 | 64 | 229 | 1.7 | 7.0 | 0.00 | 0.00 | 0.00 | 76 | 1012.9 |
| 20260504181523 | 63 | 225 | 0.9 | 8.7 | 0.00 | 0.00 | 0.00 | 76 | 1012.8 |
| 20260504180020 | 63 | 214 | 0.9 | 7.0 | 0.00 | 0.00 | 0.00 | 78 | 1012.9 |
| 20260504174516 | 62 | 240 | 0.9 | 7.8 | 0.00 | 0.00 | 0.00 | 78 | 1012.8 |
| 20260504173014 | 61 | 175 | 4.3 | 8.7 | 0.00 | 0.00 | 0.00 | 78 | 1012.9 |
| 20260504171522 | 61 | 173 | 3.5 | 10.4 | 0.00 | 0.00 | 0.00 | 79 | 1012.7 |